Flag for Congo Weather past 2 weeks in Brazzaville, Congo

Now
77 °F

Thunderstorms. Passing clouds.


Feels Like: 78 °F
Forecast: 74 / 87 °F
Wind: 2 mph from North

Location: Brazzaville / Maya-Maya

Current Time: May 23, 2015 at 2:55:40 AM

Latest Report: May 23, 2015 at 2:00 AM


Visibility: 5 mi

Pressure: 29.95 "Hg

Humidity: 94%

Dew point: 75 °F

Location of BrazzavilleLocation

Historic Weather in Brazzaville — Graph

°F

Brazzaville temperature yesterday

Maximum temperature yesterday: 91 °F (at 2:00 PM)
Minimum temperature yesterday: 75 °F (at 5:00 AM)
Average temperature yesterday: 82 °F

Past Weeks' High & Low Weather Summary

 TemperatureHumidityPressure
High93 °F (May 11, 4:00 PM)100% (May 9, 6:00 AM)30.01 "Hg (May 9, 6:00 AM)
Low72 °F (May 8, 1:00 AM)49% (May 8, 3:00 PM)29.74 "Hg (May 14, 3:00 PM)
Average80 °F81%29.92 "Hg
* Reported May 8 1:00 AM — May 23 1:00 AM, Brazzaville, Weather by CustomWeather, © 2015

Note: Actual official high and low records may vary slightly from our data, if they occured in-between our weather recording intervals... More about our weather records

Advertising

Brazzaville weather history for previous 24 hours

 ConditionsComfort  
Time TempWeatherWind HumidityBarometerVisibility
1:00 AM
Sat, May 23
79 °FThunderstorms. Passing clouds.1 mph89%29.95 "Hg5 mi
12:00 AM79 °FPassing clouds.2 mph89%29.95 "Hg5 mi
11:00 PM
Fri, May 22
79 °FPassing clouds.6 mph89%29.95 "Hg5 mi
10:00 PM81 °FPassing clouds.6 mph84%29.95 "Hg5 mi
9:00 PM82 °FPassing clouds.5 mph79%29.95 "Hg5 mi
8:00 PM82 °FPassing clouds.8 mph84%29.92 "Hg5 mi
7:00 PM86 °FPassing clouds.5 mph70%29.89 "Hg4 mi
6:00 PM86 °FPassing clouds.5 mph70%29.86 "Hg4 mi
5:00 PM90 °FPassing clouds.5 mph63%29.86 "Hg4 mi
4:00 PM91 °FPassing clouds.7 mph59%29.83 "Hg4 mi
3:00 PM91 °FPassing clouds.7 mph56%29.86 "Hg4 mi
2:00 PM91 °FPassing clouds.3 mph59%29.89 "Hg4 mi
1:00 PM90 °FScattered clouds.2 mph67%29.92 "Hg4 mi
12:00 PM86 °FPartly sunny.5 mph70%29.95 "Hg4 mi
11:00 AM86 °FScattered clouds.5 mph70%29.98 "Hg4 mi
10:00 AM84 °FScattered clouds.5 mph74%29.98 "Hg4 mi
9:00 AM81 °FScattered clouds.6 mph84%30.01 "Hg4 mi
8:00 AM79 °FBroken clouds.3 mph89%29.98 "Hg5 mi
7:00 AM77 °FPartly sunny.3 mph94%29.95 "Hg5 mi
6:00 AM77 °FPartly sunny.2 mph89%29.95 "Hg5 mi
5:00 AM75 °FPassing clouds.3 mph94%29.95 "Hg5 mi
4:00 AM77 °FPassing clouds.5 mph89%29.92 "Hg5 mi
3:00 AM77 °FPassing clouds.2 mph94%29.92 "Hg5 mi
2:00 AM77 °FPassing clouds.2 mph94%29.92 "Hg5 mi
Weather by CustomWeather, © 2015

See weather overviewHow to use our weather pages